,,PressureMeas_1m,,PRMeasQMR101_1,,RHStat155_1m_1,,SRMeasQMS101R_1m,,TAStat155_1m_1,,GenWind_1,,GenWind_1,
2018-04-21, 00:00:06,VALID,917.949,VALID,0.0,VALID,97.335,VALID,0.0,VALID,21.537,VALID,156.0,VALID,0.793,
2018-04-21, 00:01:06,VALID,917.917,VALID,0.0,VALID,97.352,VALID,0.0,VALID,21.473,VALID,91.0,VALID,1.427,
2018-04-21, 00:02:06,VALID,917.89,VALID,0.0,VALID,97.479,VALID,0.001,VALID,21.417,VALID,83.0,VALID,2.12,
2018-04-21, 00:03:06,VALID,917.892,VALID,0.0,VALID,97.704,VALID,-0.022,VALID,21.367,VALID,89.0,VALID,2.432,
2018-04-21, 00:04:06,VALID,917.88,VALID,0.0,VALID,97.746,VALID,-0.005,VALID,21.295,VALID,69.0,VALID,2.034,
2018-04-21, 00:05:06,VALID,917.866,VALID,0.0,VALID,97.889,VALID,0.015,VALID,21.249,VALID,66.0,VALID,2.513,
2018-04-21, 00:06:06,VALID,917.879,VALID,0.0,VALID,97.967,VALID,-0.005,VALID,21.194,VALID,99.0,VALID,2.279,
2018-04-21, 00:07:06,VALID,917.865,VALID,0.0,VALID,98.06,VALID,-0.002,VALID,21.137,VALID,105.0,VALID,2.482,
2018-04-21, 00:08:06,VALID,917.86,VALID,0.0,VALID,98.209,VALID,-0.02,VALID,21.112,VALID,108.0,VALID,3.266,
2018-04-21, 00:09:06,VALID,917.857,VALID,0.0,VALID,98.253,VALID,-0.008,VALID,21.075,VALID,117.0,VALID,3.674,
2018-04-21, 00:10:06,VALID,917.822,VALID,0.0,VALID,98.345,VALID,0.001,VALID,21.062,VALID,129.0,VALID,3.211,
2018-04-21, 00:11:06,VALID,917.81,VALID,0.0,VALID,98.357,VALID,0.007,VALID,21.0,VALID,152.0,VALID,1.939,
2018-04-21, 00:12:06,VALID,917.842,VALID,0.0,VALID,98.383,VALID,-0.006,VALID,20.956,VALID,130.0,VALID,2.203,
2018-04-21, 00:13:06,VALID,917.864,VALID,0.0,VALID,98.461,VALID,0.005,VALID,20.95,VALID,175.0,VALID,1.531,
2018-04-21, 00:14:06,VALID,917.865,VALID,0.0,VALID,98.536,VALID,0.027,VALID,20.949,VALID,155.0,VALID,0.895,
2018-04-21, 00:15:06,VALID,917.854,VALID,0.0,VALID,98.6,VALID,0.015,VALID,20.954,VALID,156.0,VALID,1.47,
2018-04-21, 00:16:06,VALID,917.838,VALID,0.0,VALID,98.603,VALID,0.009,VALID,20.915,VALID,158.0,VALID,0.831,
2018-04-21, 00:17:06,VALID,917.823,VALID,0.0,VALID,98.603,VALID,0.004,VALID,20.865,VALID,148.0,VALID,1.216,
2018-04-21, 00:18:06,VALID,917.782,VALID,0.0,VALID,98.634,VALID,0.001,VALID,20.843,VALID,151.0,VALID,1.895,
2018-04-21, 00:19:06,VALID,917.757,VALID,0.0,VALID,98.698,VALID,-0.002,VALID,20.844,VALID,135.0,VALID,1.675,
2018-04-21, 00:20:06,VALID,917.794,VALID,0.0,VALID,98.748,VALID,0.005,VALID,20.854,VALID,145.0,VALID,1.699,
2018-04-21, 00:21:06,VALID,917.824,VALID,0.0,VALID,98.759,VALID,-0.016,VALID,20.819,VALID,144.0,VALID,1.444,
2018-04-21, 00:22:06,VALID,917.816,VALID,0.0,VALID,98.711,VALID,-0.007,VALID,20.754,VALID,123.0,VALID,2.754,
2018-04-21, 00:23:06,VALID,917.793,VALID,0.0,VALID,98.743,VALID,-0.007,VALID,20.709,VALID,101.0,VALID,2.954,
2018-04-21, 00:24:06,VALID,917.771,VALID,0.0,VALID,98.744,VALID,-0.005,VALID,20.686,VALID,95.0,VALID,3.677,
2018-04-21, 00:25:06,VALID,917.765,VALID,0.0,VALID,98.79,VALID,-0.012,VALID,20.669,VALID,117.0,VALID,3.228,
2018-04-21, 00:26:06,VALID,917.775,VALID,0.0,VALID,98.813,VALID,0.002,VALID,20.672,VALID,127.0,VALID,3.38,
2018-04-21, 00:27:06,VALID,917.762,VALID,0.0,VALID,98.827,VALID,0.004,VALID,20.638,VALID,111.0,VALID,2.8,
2018-04-21, 00:28:06,VALID,917.768,VALID,0.0,VALID,98.832,VALID,0.008,VALID,20.616,VALID,113.0,VALID,2.835,
2018-04-21, 00:29:06,VALID,917.752,VALID,0.0,VALID,98.836,VALID,-0.001,VALID,20.579,VALID,99.0,VALID,2.614,
2018-04-21, 00:30:06,VALID,917.77,VALID,0.0,VALID,98.849,VALID,-0.014,VALID,20.536,VALID,105.0,VALID,1.97,
2018-04-21, 00:31:06,VALID,917.767,VALID,0.0,VALID,98.848,VALID,0.006,VALID,20.51,VALID,109.0,VALID,1.342,
2018-04-21, 00:32:06,VALID,917.742,VALID,0.0,VALID,98.877,VALID,-0.006,VALID,20.498,VALID,68.0,VALID,2.104,
2018-04-21, 00:33:06,VALID,917.748,VALID,0.0,VALID,98.873,VALID,-0.013,VALID,20.476,VALID,45.0,VALID,1.346,
2018-04-21, 00:34:06,VALID,917.738,VALID,0.0,VALID,98.913,VALID,-0.006,VALID,20.482,VALID,95.0,VALID,1.057,
2018-04-21, 00:35:06,VALID,917.729,VALID,0.0,VALID,98.918,VALID,-0.006,VALID,20.482,VALID,130.0,VALID,2.148,
2018-04-21, 00:36:06,VALID,917.702,VALID,0.0,VALID,98.934,VALID,-0.008,VALID,20.496,VALID,128.0,VALID,2.178,
2018-04-21, 00:37:06,VALID,917.684,VALID,0.0,VALID,98.964,VALID,0.0,VALID,20.509,VALID,114.0,VALID,2.379,
2018-04-21, 00:38:06,VALID,917.636,VALID,0.0,VALID,98.933,VALID,-0.016,VALID,20.446,VALID,89.0,VALID,2.684,
2018-04-21, 00:39:06,VALID,917.601,VALID,0.0,VALID,98.842,VALID,-0.012,VALID,20.336,VALID,74.0,VALID,1.965,
2018-04-21, 00:40:06,VALID,917.575,VALID,0.0,VALID,98.893,VALID,-0.005,VALID,20.301,VALID,74.0,VALID,1.636,
2018-04-21, 00:41:06,VALID,917.577,VALID,0.0,VALID,98.846,VALID,-0.01,VALID,20.204,VALID,72.0,VALID,1.527,
2018-04-21, 00:42:06,VALID,917.58,VALID,0.0,VALID,98.925,VALID,-0.021,VALID,20.199,VALID,79.0,VALID,1.212,
2018-04-21, 00:43:06,VALID,917.57,VALID,0.0,VALID,98.953,VALID,-0.015,VALID,20.222,VALID,62.0,VALID,1.281,
2018-04-21, 00:44:06,VALID,917.572,VALID,0.0,VALID,98.975,VALID,0.004,VALID,20.225,VALID,54.0,VALID,1.196,
2018-04-21, 00:45:06,VALID,917.565,VALID,0.0,VALID,98.98,VALID,-0.012,VALID,20.227,VALID,42.0,VALID,0.805,
2018-04-21, 00:46:06,VALID,917.564,VALID,0.0,VALID,98.964,VALID,-0.009,VALID,20.205,VALID,43.0,VALID,0.475,
2018-04-21, 00:47:06,VALID,917.551,VALID,0.0,VALID,98.956,VALID,-0.013,VALID,20.174,VALID,58.0,VALID,0.435,
2018-04-21, 00:48:06,VALID,917.529,VALID,0.0,VALID,98.962,VALID,0.007,VALID,20.137,VALID,80.0,VALID,0.086,
2018-04-21, 00:49:06,VALID,917.489,VALID,0.0,VALID,98.987,VALID,0.008,VALID,20.142,VALID,81.0,VALID,0.0,
2018-04-21, 00:50:06,VALID,917.461,VALID,0.0,VALID,99.028,VALID,-0.006,VALID,20.184,VALID,81.0,VALID,0.0,
2018-04-21, 00:51:06,VALID,917.422,VALID,0.0,VALID,99.03,VALID,-0.011,VALID,20.174,VALID,129.0,VALID,0.326,
2018-04-21, 00:52:06,VALID,917.399,VALID,0.0,VALID,99.03,VALID,0.006,VALID,20.175,VALID,139.0,VALID,0.588,
2018-04-21, 00:53:06,VALID,917.374,VALID,0.0,VALID,99.022,VALID,-0.003,VALID,20.184,VALID,132.0,VALID,0.711,
2018-04-21, 00:54:06,VALID,917.361,VALID,0.0,VALID,99.04,VALID,-0.017,VALID,20.211,VALID,131.0,VALID,0.86,
2018-04-21, 00:55:06,VALID,917.344,VALID,0.0,VALID,99.041,VALID,0.008,VALID,20.225,VALID,132.0,VALID,0.954,
2018-04-21, 00:56:06,VALID,917.331,VALID,0.0,VALID,99.055,VALID,0.017,VALID,20.246,VALID,136.0,VALID,1.1,
2018-04-21, 00:57:06,VALID,917.318,VALID,0.0,VALID,99.103,VALID,0.019,VALID,20.285,VALID,143.0,VALID,0.898,
2018-04-21, 00:58:06,VALID,917.31,VALID,0.0,VALID,99.085,VALID,0.001,VALID,20.306,VALID,165.0,VALID,0.201,
2018-04-21, 00:59:06,VALID,917.298,VALID,0.0,VALID,99.088,VALID,0.021,VALID,20.315,VALID,189.0,VALID,0.017,
2018-04-21, 01:00:06,VALID,917.277,VALID,0.0,VALID,99.071,VALID,0.012,VALID,20.287,VALID,174.0,VALID,0.616,
2018-04-21, 01:01:06,VALID,917.269,VALID,0.0,VALID,99.08,VALID,0.006,VALID,20.293,VALID,172.0,VALID,0.669,
2018-04-21, 01:02:06,VALID,917.261,VALID,0.0,VALID,99.089,VALID,0.009,VALID,20.298,VALID,177.0,VALID,0.48,
2018-04-21, 01:03:06,VALID,917.24,VALID,0.0,VALID,99.09,VALID,0.02,VALID,20.303,VALID,175.0,VALID,0.484,
2018-04-21, 01:04:06,VALID,917.205,VALID,0.0,VALID,99.095,VALID,0.026,VALID,20.294,VALID,176.0,VALID,0.326,
2018-04-21, 01:05:06,VALID,917.184,VALID,0.0,VALID,99.085,VALID,0.022,VALID,20.294,VALID,174.0,VALID,0.0,
2018-04-21, 01:06:06,VALID,917.153,VALID,0.0,VALID,99.09,VALID,0.033,VALID,20.314,VALID,177.0,VALID,0.0,
2018-04-21, 01:07:06,VALID,917.126,VALID,0.0,VALID,99.113,VALID,0.021,VALID,20.331,VALID,166.0,VALID,0.0,
2018-04-21, 01:08:06,VALID,917.102,VALID,0.0,VALID,99.117,VALID,0.031,VALID,20.346,VALID,157.0,VALID,0.0,
2018-04-21, 01:09:06,VALID,917.084,VALID,0.0,VALID,99.127,VALID,0.013,VALID,20.366,VALID,143.0,VALID,0.0,
2018-04-21, 01:10:06,VALID,917.076,VALID,0.0,VALID,99.139,VALID,0.018,VALID,20.377,VALID,143.0,VALID,0.0,
2018-04-21, 01:11:06,VALID,917.068,VALID,0.0,VALID,99.097,VALID,0.033,VALID,20.37,VALID,143.0,VALID,0.0,
2018-04-21, 01:12:06,VALID,917.069,VALID,0.0,VALID,99.117,VALID,0.025,VALID,20.367,VALID,143.0,VALID,0.0,
2018-04-21, 01:13:06,VALID,917.075,VALID,0.0,VALID,99.106,VALID,0.019,VALID,20.383,VALID,129.0,VALID,0.0,
2018-04-21, 01:14:06,VALID,917.082,VALID,0.0,VALID,99.129,VALID,0.038,VALID,20.38,VALID,115.0,VALID,0.0,
2018-04-21, 01:15:06,VALID,917.073,VALID,0.0,VALID,99.125,VALID,0.02,VALID,20.371,VALID,108.0,VALID,0.0,
2018-04-21, 01:16:06,VALID,917.062,VALID,0.0,VALID,99.131,VALID,0.025,VALID,20.377,VALID,108.0,VALID,0.0,
2018-04-21, 01:17:06,VALID,917.034,VALID,0.0,VALID,99.118,VALID,0.017,VALID,20.382,VALID,109.0,VALID,0.0,
2018-04-21, 01:18:06,VALID,917.01,VALID,0.0,VALID,99.112,VALID,0.013,VALID,20.374,VALID,115.0,VALID,0.086,
2018-04-21, 01:19:06,VALID,916.973,VALID,0.0,VALID,99.122,VALID,0.018,VALID,20.374,VALID,124.0,VALID,0.355,
2018-04-21, 01:20:06,VALID,916.945,VALID,0.0,VALID,99.157,VALID,0.028,VALID,20.416,VALID,144.0,VALID,0.123,
2018-04-21, 01:21:06,VALID,916.924,VALID,0.0,VALID,99.143,VALID,0.015,VALID,20.447,VALID,150.0,VALID,0.061,
2018-04-21, 01:22:06,VALID,916.909,VALID,0.0,VALID,99.155,VALID,0.013,VALID,20.504,VALID,158.0,VALID,0.001,
2018-04-21, 01:23:06,VALID,916.89,VALID,0.0,VALID,99.152,VALID,0.023,VALID,20.502,VALID,145.0,VALID,0.168,
2018-04-21, 01:24:06,VALID,916.888,VALID,0.0,VALID,99.127,VALID,0.01,VALID,20.474,VALID,133.0,VALID,0.376,
2018-04-21, 01:25:06,VALID,916.872,VALID,0.0,VALID,99.128,VALID,0.01,VALID,20.442,VALID,127.0,VALID,0.457,
2018-04-21, 01:26:06,VALID,916.867,VALID,0.0,VALID,99.124,VALID,-0.015,VALID,20.432,VALID,124.0,VALID,0.461,
2018-04-21, 01:27:06,VALID,916.844,VALID,0.0,VALID,99.127,VALID,0.008,VALID,20.432,VALID,125.0,VALID,0.179,
2018-04-21, 01:28:06,VALID,916.824,VALID,0.0,VALID,99.143,VALID,0.003,VALID,20.437,VALID,123.0,VALID,0.0,
2018-04-21, 01:29:06,VALID,916.819,VALID,0.0,VALID,99.132,VALID,-0.002,VALID,20.434,VALID,119.0,VALID,0.0,
2018-04-21, 01:30:06,VALID,916.793,VALID,0.0,VALID,99.14,VALID,-0.007,VALID,20.438,VALID,119.0,VALID,0.0,
2018-04-21, 01:31:06,VALID,916.766,VALID,0.0,VALID,99.159,VALID,-0.007,VALID,20.449,VALID,119.0,VALID,0.0,
2018-04-21, 01:32:06,VALID,916.749,VALID,0.0,VALID,99.166,VALID,-0.001,VALID,20.461,VALID,119.0,VALID,0.0,
2018-04-21, 01:33:06,VALID,916.708,VALID,0.0,VALID,99.137,VALID,-0.007,VALID,20.475,VALID,119.0,VALID,0.0,
2018-04-21, 01:34:06,VALID,916.704,VALID,0.0,VALID,99.138,VALID,-0.001,VALID,20.49,VALID,119.0,VALID,0.0,
2018-04-21, 01:35:06,VALID,916.668,VALID,0.0,VALID,99.156,VALID,0.003,VALID,20.493,VALID,119.0,VALID,0.0,
2018-04-21, 01:36:06,VALID,916.667,VALID,0.0,VALID,99.145,VALID,-0.005,VALID,20.494,VALID,119.0,VALID,0.0,
2018-04-21, 01:37:06,VALID,916.666,VALID,0.0,VALID,99.161,VALID,0.007,VALID,20.501,VALID,119.0,VALID,0.0,
2018-04-21, 01:38:06,VALID,916.667,VALID,0.0,VALID,99.118,VALID,-0.013,VALID,20.479,VALID,118.0,VALID,0.0,
2018-04-21, 01:39:06,VALID,916.66,VALID,0.0,VALID,99.123,VALID,0.0,VALID,20.436,VALID,45.0,VALID,0.0,
2018-04-21, 01:40:06,VALID,916.68,VALID,0.0,VALID,99.102,VALID,0.013,VALID,20.366,VALID,356.0,VALID,0.0,
2018-04-21, 01:41:06,VALID,916.682,VALID,0.0,VALID,99.119,VALID,-0.006,VALID,20.328,VALID,3.0,VALID,0.0,
2018-04-21, 01:42:06,VALID,916.691,VALID,0.0,VALID,99.106,VALID,-0.004,VALID,20.284,VALID,16.0,VALID,0.0,
2018-04-21, 01:43:06,VALID,916.693,VALID,0.0,VALID,99.126,VALID,-0.004,VALID,20.287,VALID,23.0,VALID,0.005,
2018-04-21, 01:44:06,VALID,916.699,VALID,0.0,VALID,99.134,VALID,-0.004,VALID,20.279,VALID,26.0,VALID,0.555,
2018-04-21, 01:45:06,VALID,916.693,VALID,0.0,VALID,99.157,VALID,0.017,VALID,20.287,VALID,21.0,VALID,0.208,
2018-04-21, 01:46:06,VALID,916.701,VALID,0.0,VALID,99.152,VALID,0.012,VALID,20.293,VALID,4.0,VALID,0.0,
2018-04-21, 01:47:06,VALID,916.696,VALID,0.0,VALID,99.152,VALID,-0.001,VALID,20.298,VALID,352.0,VALID,0.0,
2018-04-21, 01:48:06,VALID,916.693,VALID,0.0,VALID,99.142,VALID,0.019,VALID,20.292,VALID,332.0,VALID,0.356,
2018-04-21, 01:49:06,VALID,916.691,VALID,0.0,VALID,99.139,VALID,0.002,VALID,20.291,VALID,329.0,VALID,0.063,
2018-04-21, 01:50:06,VALID,916.686,VALID,0.0,VALID,99.149,VALID,0.015,VALID,20.305,VALID,322.0,VALID,0.062,
2018-04-21, 01:51:06,VALID,916.673,VALID,0.0,VALID,99.161,VALID,0.022,VALID,20.298,VALID,322.0,VALID,0.0,
2018-04-21, 01:52:06,VALID,916.681,VALID,0.0,VALID,99.171,VALID,0.02,VALID,20.324,VALID,322.0,VALID,0.0,
2018-04-21, 01:53:06,VALID,916.666,VALID,0.0,VALID,99.195,VALID,0.022,VALID,20.359,VALID,322.0,VALID,0.0,
2018-04-21, 01:54:06,VALID,916.651,VALID,0.0,VALID,99.165,VALID,0.013,VALID,20.363,VALID,322.0,VALID,0.0,
2018-04-21, 01:55:06,VALID,916.64,VALID,0.0,VALID,99.201,VALID,0.01,VALID,20.401,VALID,322.0,VALID,0.0,
2018-04-21, 01:56:06,VALID,916.628,VALID,0.0,VALID,99.18,VALID,0.016,VALID,20.411,VALID,322.0,VALID,0.0,
2018-04-21, 01:57:06,VALID,916.616,VALID,0.0,VALID,99.171,VALID,0.041,VALID,20.424,VALID,322.0,VALID,0.0,
2018-04-21, 01:58:06,VALID,916.609,VALID,0.0,VALID,99.162,VALID,0.024,VALID,20.389,VALID,322.0,VALID,0.0,
2018-04-21, 01:59:06,VALID,916.603,VALID,0.0,VALID,99.147,VALID,0.021,VALID,20.352,VALID,322.0,VALID,0.0,
2018-04-21, 02:00:06,VALID,916.602,VALID,0.0,VALID,99.161,VALID,0.013,VALID,20.345,VALID,322.0,VALID,0.0,
2018-04-21, 02:01:06,VALID,916.598,VALID,0.0,VALID,99.167,VALID,0.031,VALID,20.353,VALID,322.0,VALID,0.0,
2018-04-21, 02:02:06,VALID,916.596,VALID,0.0,VALID,99.194,VALID,0.009,VALID,20.381,VALID,322.0,VALID,0.0,
2018-04-21, 02:03:06,VALID,916.583,VALID,0.0,VALID,99.188,VALID,0.023,VALID,20.398,VALID,322.0,VALID,0.0,
2018-04-21, 02:04:06,VALID,916.559,VALID,0.0,VALID,99.179,VALID,0.015,VALID,20.408,VALID,322.0,VALID,0.0,
2018-04-21, 02:05:06,VALID,916.545,VALID,0.0,VALID,99.208,VALID,0.013,VALID,20.406,VALID,322.0,VALID,0.0,
2018-04-21, 02:06:06,VALID,916.526,VALID,0.0,VALID,99.178,VALID,0.026,VALID,20.392,VALID,322.0,VALID,0.0,
2018-04-21, 02:07:06,VALID,916.512,VALID,0.0,VALID,99.173,VALID,0.032,VALID,20.374,VALID,322.0,VALID,0.0,
2018-04-21, 02:08:06,VALID,916.499,VALID,0.0,VALID,99.176,VALID,0.021,VALID,20.369,VALID,349.0,VALID,0.0,
2018-04-21, 02:09:06,VALID,916.483,VALID,0.0,VALID,99.174,VALID,0.016,VALID,20.343,VALID,78.0,VALID,0.0,
2018-04-21, 02:10:06,VALID,916.47,VALID,0.0,VALID,99.167,VALID,0.032,VALID,20.299,VALID,78.0,VALID,0.0,
2018-04-21, 02:11:06,VALID,916.451,VALID,0.0,VALID,99.173,VALID,0.023,VALID,20.294,VALID,78.0,VALID,0.123,
2018-04-21, 02:12:06,VALID,916.442,VALID,0.0,VALID,99.175,VALID,0.013,VALID,20.296,VALID,71.0,VALID,0.353,
2018-04-21, 02:13:06,VALID,916.423,VALID,0.0,VALID,99.175,VALID,0.022,VALID,20.294,VALID,50.0,VALID,0.463,
2018-04-21, 02:14:06,VALID,916.421,VALID,0.0,VALID,99.177,VALID,0.016,VALID,20.291,VALID,43.0,VALID,0.414,
2018-04-21, 02:15:06,VALID,916.399,VALID,0.0,VALID,99.193,VALID,0.009,VALID,20.293,VALID,31.0,VALID,0.347,
2018-04-21, 02:16:06,VALID,916.395,VALID,0.0,VALID,99.181,VALID,0.015,VALID,20.312,VALID,19.0,VALID,0.411,
2018-04-21, 02:17:06,VALID,916.383,VALID,0.0,VALID,99.167,VALID,0.021,VALID,20.312,VALID,7.0,VALID,0.373,
2018-04-21, 02:18:06,VALID,916.372,VALID,0.0,VALID,99.184,VALID,0.028,VALID,20.321,VALID,359.0,VALID,0.506,
2018-04-21, 02:19:06,VALID,916.358,VALID,0.0,VALID,99.163,VALID,0.021,VALID,20.316,VALID,340.0,VALID,0.394,
2018-04-21, 02:20:06,VALID,916.346,VALID,0.0,VALID,99.16,VALID,-0.008,VALID,20.316,VALID,344.0,VALID,0.439,
2018-04-21, 02:21:06,VALID,916.324,VALID,0.0,VALID,99.161,VALID,0.012,VALID,20.301,VALID,344.0,VALID,0.454,
2018-04-21, 02:22:06,VALID,916.311,VALID,0.0,VALID,99.148,VALID,0.006,VALID,20.279,VALID,340.0,VALID,0.274,
2018-04-21, 02:23:06,VALID,916.314,VALID,0.0,VALID,99.151,VALID,0.007,VALID,20.272,VALID,336.0,VALID,0.008,
2018-04-21, 02:24:06,VALID,916.298,VALID,0.0,VALID,99.146,VALID,0.005,VALID,20.279,VALID,336.0,VALID,0.0,
2018-04-21, 02:25:06,VALID,916.285,VALID,0.0,VALID,99.157,VALID,0.007,VALID,20.285,VALID,336.0,VALID,0.0,
2018-04-21, 02:26:06,VALID,916.286,VALID,0.0,VALID,99.179,VALID,0.007,VALID,20.28,VALID,51.0,VALID,0.0,
2018-04-21, 02:27:06,VALID,916.277,VALID,0.0,VALID,99.168,VALID,0.015,VALID,20.27,VALID,115.0,VALID,0.0,
2018-04-21, 02:28:06,VALID,916.27,VALID,0.0,VALID,99.185,VALID,-0.007,VALID,20.286,VALID,137.0,VALID,0.407,
2018-04-21, 02:29:06,VALID,916.258,VALID,0.0,VALID,99.162,VALID,0.004,VALID,20.3,VALID,127.0,VALID,0.654,
2018-04-21, 02:30:06,VALID,916.24,VALID,0.0,VALID,99.167,VALID,-0.006,VALID,20.312,VALID,128.0,VALID,0.791,
2018-04-21, 02:31:06,VALID,916.241,VALID,0.0,VALID,99.189,VALID,0.002,VALID,20.344,VALID,144.0,VALID,0.089,
2018-04-21, 02:32:06,VALID,916.227,VALID,0.0,VALID,99.217,VALID,0.011,VALID,20.381,VALID,146.0,VALID,0.004,
2018-04-21, 02:33:06,VALID,916.239,VALID,0.0,VALID,99.198,VALID,0.005,VALID,20.42,VALID,147.0,VALID,0.162,
2018-04-21, 02:34:06,VALID,916.25,VALID,0.0,VALID,99.192,VALID,0.004,VALID,20.434,VALID,183.0,VALID,0.001,
2018-04-21, 02:35:06,VALID,916.254,VALID,0.0,VALID,99.2,VALID,0.01,VALID,20.411,VALID,167.0,VALID,0.078,
2018-04-21, 02:36:06,VALID,916.269,VALID,0.0,VALID,99.183,VALID,0.025,VALID,20.379,VALID,188.0,VALID,0.207,
2018-04-21, 02:37:06,VALID,916.264,VALID,0.0,VALID,99.178,VALID,0.009,VALID,20.379,VALID,185.0,VALID,0.047,
2018-04-21, 02:38:06,VALID,916.273,VALID,0.0,VALID,99.163,VALID,-0.001,VALID,20.358,VALID,190.0,VALID,0.004,
2018-04-21, 02:39:06,VALID,916.254,VALID,0.0,VALID,99.167,VALID,0.001,VALID,20.34,VALID,190.0,VALID,0.0,
2018-04-21, 02:40:06,VALID,916.243,VALID,0.0,VALID,99.161,VALID,0.001,VALID,20.334,VALID,183.0,VALID,0.0,
2018-04-21, 02:41:06,VALID,916.216,VALID,0.0,VALID,99.144,VALID,0.013,VALID,20.311,VALID,111.0,VALID,0.049,
2018-04-21, 02:42:06,VALID,916.208,VALID,0.0,VALID,99.129,VALID,0.008,VALID,20.3,VALID,93.0,VALID,0.534,
2018-04-21, 02:43:06,VALID,916.186,VALID,0.0,VALID,99.111,VALID,-0.021,VALID,20.282,VALID,76.0,VALID,0.08,
2018-04-21, 02:44:06,VALID,916.188,VALID,0.0,VALID,99.104,VALID,-0.011,VALID,20.29,VALID,63.0,VALID,0.0,
2018-04-21, 02:45:06,VALID,916.193,VALID,0.0,VALID,99.127,VALID,0.001,VALID,20.305,VALID,58.0,VALID,0.0,
2018-04-21, 02:46:06,VALID,916.184,VALID,0.0,VALID,99.111,VALID,0.002,VALID,20.309,VALID,56.0,VALID,0.0,
2018-04-21, 02:47:06,VALID,916.178,VALID,0.0,VALID,99.092,VALID,0.001,VALID,20.31,VALID,54.0,VALID,0.0,
2018-04-21, 02:48:06,VALID,916.164,VALID,0.0,VALID,99.084,VALID,-0.016,VALID,20.304,VALID,47.0,VALID,0.0,
2018-04-21, 02:49:06,VALID,916.162,VALID,0.0,VALID,99.114,VALID,-0.017,VALID,20.304,VALID,42.0,VALID,0.0,
2018-04-21, 02:50:06,VALID,916.141,VALID,0.0,VALID,99.081,VALID,-0.019,VALID,20.31,VALID,37.0,VALID,0.0,
2018-04-21, 02:51:06,VALID,916.125,VALID,0.0,VALID,99.111,VALID,-0.036,VALID,20.332,VALID,13.0,VALID,0.0,
2018-04-21, 02:52:06,VALID,916.109,VALID,0.0,VALID,99.091,VALID,-0.032,VALID,20.331,VALID,3.0,VALID,0.105,
2018-04-21, 02:53:06,VALID,916.087,VALID,0.0,VALID,99.087,VALID,-0.016,VALID,20.316,VALID,353.0,VALID,0.359,
2018-04-21, 02:54:06,VALID,916.064,VALID,0.0,VALID,99.096,VALID,-0.021,VALID,20.314,VALID,352.0,VALID,0.245,
2018-04-21, 02:55:06,VALID,916.049,VALID,0.0,VALID,99.111,VALID,-0.016,VALID,20.311,VALID,352.0,VALID,0.128,
2018-04-21, 02:56:06,VALID,916.042,VALID,0.0,VALID,99.095,VALID,-0.022,VALID,20.298,VALID,352.0,VALID,0.012,
2018-04-21, 02:57:06,VALID,916.03,VALID,0.0,VALID,99.105,VALID,-0.029,VALID,20.298,VALID,350.0,VALID,0.0,
2018-04-21, 02:58:06,VALID,916.017,VALID,0.0,VALID,99.129,VALID,-0.023,VALID,20.309,VALID,350.0,VALID,0.0,
2018-04-21, 02:59:06,VALID,916.009,VALID,0.0,VALID,99.146,VALID,-0.023,VALID,20.333,VALID,345.0,VALID,0.0,
2018-04-21, 03:00:06,VALID,915.981,VALID,0.0,VALID,99.145,VALID,-0.021,VALID,20.349,VALID,346.0,VALID,0.0,
2018-04-21, 03:01:06,VALID,915.96,VALID,0.0,VALID,99.136,VALID,-0.015,VALID,20.372,VALID,347.0,VALID,0.0,
2018-04-21, 03:02:06,VALID,915.958,VALID,0.0,VALID,99.145,VALID,-0.013,VALID,20.379,VALID,346.0,VALID,0.0,
2018-04-21, 03:03:06,VALID,915.945,VALID,0.0,VALID,99.146,VALID,0.006,VALID,20.37,VALID,346.0,VALID,0.0,
2018-04-21, 03:04:06,VALID,915.937,VALID,0.0,VALID,99.142,VALID,0.001,VALID,20.385,VALID,346.0,VALID,0.0,
2018-04-21, 03:05:06,VALID,915.947,VALID,0.0,VALID,99.133,VALID,0.002,VALID,20.384,VALID,346.0,VALID,0.0,
2018-04-21, 03:06:06,VALID,915.946,VALID,0.0,VALID,99.116,VALID,-0.003,VALID,20.378,VALID,346.0,VALID,0.0,
2018-04-21, 03:07:06,VALID,915.954,VALID,0.0,VALID,99.146,VALID,0.0,VALID,20.39,VALID,346.0,VALID,0.0,
2018-04-21, 03:08:06,VALID,915.972,VALID,0.0,VALID,99.135,VALID,0.011,VALID,20.398,VALID,346.0,VALID,0.0,
2018-04-21, 03:09:06,VALID,916.003,VALID,0.0,VALID,99.124,VALID,-0.001,VALID,20.395,VALID,346.0,VALID,0.0,
2018-04-21, 03:10:06,VALID,915.997,VALID,0.0,VALID,99.155,VALID,0.01,VALID,20.407,VALID,346.0,VALID,0.0,
2018-04-21, 03:11:06,VALID,916.019,VALID,0.0,VALID,99.14,VALID,0.009,VALID,20.425,VALID,346.0,VALID,0.0,
2018-04-21, 03:12:06,VALID,916.015,VALID,0.0,VALID,99.149,VALID,-0.003,VALID,20.431,VALID,346.0,VALID,0.0,
2018-04-21, 03:13:06,VALID,916.01,VALID,0.0,VALID,99.139,VALID,0.007,VALID,20.423,VALID,347.0,VALID,0.0,
2018-04-21, 03:14:06,VALID,916.024,VALID,0.0,VALID,99.13,VALID,0.006,VALID,20.417,VALID,347.0,VALID,0.0,
2018-04-21, 03:15:06,VALID,916.03,VALID,0.0,VALID,99.124,VALID,0.011,VALID,20.414,VALID,347.0,VALID,0.0,
2018-04-21, 03:16:06,VALID,916.027,VALID,0.0,VALID,99.123,VALID,0.006,VALID,20.418,VALID,347.0,VALID,0.0,
2018-04-21, 03:17:06,VALID,916.021,VALID,0.0,VALID,99.143,VALID,-0.002,VALID,20.451,VALID,306.0,VALID,0.0,
2018-04-21, 03:18:06,VALID,916.029,VALID,0.0,VALID,99.146,VALID,0.006,VALID,20.472,VALID,171.0,VALID,0.0,
2018-04-21, 03:19:06,VALID,916.021,VALID,0.0,VALID,99.135,VALID,0.006,VALID,20.451,VALID,175.0,VALID,0.0,
2018-04-21, 03:20:06,VALID,916.036,VALID,0.0,VALID,99.121,VALID,0.003,VALID,20.441,VALID,202.0,VALID,0.0,
2018-04-21, 03:21:06,VALID,916.037,VALID,0.0,VALID,99.16,VALID,0.021,VALID,20.437,VALID,211.0,VALID,0.0,
2018-04-21, 03:22:06,VALID,916.041,VALID,0.0,VALID,99.136,VALID,-0.006,VALID,20.445,VALID,211.0,VALID,0.0,
2018-04-21, 03:23:06,VALID,916.039,VALID,0.0,VALID,99.17,VALID,-0.005,VALID,20.451,VALID,211.0,VALID,0.0,
2018-04-21, 03:24:06,VALID,916.04,VALID,0.0,VALID,99.135,VALID,0.003,VALID,20.454,VALID,211.0,VALID,0.0,
2018-04-21, 03:25:06,VALID,916.039,VALID,0.0,VALID,99.141,VALID,0.018,VALID,20.449,VALID,211.0,VALID,0.0,
2018-04-21, 03:26:06,VALID,916.029,VALID,0.0,VALID,99.172,VALID,0.009,VALID,20.464,VALID,211.0,VALID,0.0,
2018-04-21, 03:27:06,VALID,916.019,VALID,0.0,VALID,99.183,VALID,0.016,VALID,20.485,VALID,235.0,VALID,0.0,
2018-04-21, 03:28:06,VALID,916.028,VALID,0.0,VALID,99.179,VALID,-0.003,VALID,20.498,VALID,242.0,VALID,0.0,
2018-04-21, 03:29:06,VALID,916.019,VALID,0.0,VALID,99.163,VALID,0.008,VALID,20.502,VALID,242.0,VALID,0.0,
2018-04-21, 03:30:06,VALID,916.018,VALID,0.0,VALID,99.206,VALID,0.003,VALID,20.512,VALID,243.0,VALID,0.0,
2018-04-21, 03:31:06,VALID,916.011,VALID,0.0,VALID,99.15,VALID,0.007,VALID,20.496,VALID,243.0,VALID,0.0,
2018-04-21, 03:32:06,VALID,916.008,VALID,0.0,VALID,99.162,VALID,-0.007,VALID,20.498,VALID,243.0,VALID,0.0,
2018-04-21, 03:33:06,VALID,916.009,VALID,0.0,VALID,99.175,VALID,-0.004,VALID,20.495,VALID,243.0,VALID,0.0,
2018-04-21, 03:34:06,VALID,916.009,VALID,0.0,VALID,99.151,VALID,-0.013,VALID,20.477,VALID,243.0,VALID,0.0,
2018-04-21, 03:35:06,VALID,916.002,VALID,0.0,VALID,99.159,VALID,-0.01,VALID,20.469,VALID,243.0,VALID,0.0,
2018-04-21, 03:36:06,VALID,916.014,VALID,0.0,VALID,99.189,VALID,-0.014,VALID,20.481,VALID,243.0,VALID,0.0,
2018-04-21, 03:37:06,VALID,916.018,VALID,0.0,VALID,99.175,VALID,-0.005,VALID,20.485,VALID,243.0,VALID,0.0,
2018-04-21, 03:38:06,VALID,916.031,VALID,0.0,VALID,99.177,VALID,-0.017,VALID,20.466,VALID,243.0,VALID,0.0,
2018-04-21, 03:39:06,VALID,916.038,VALID,0.0,VALID,99.179,VALID,-0.015,VALID,20.453,VALID,244.0,VALID,0.0,
2018-04-21, 03:40:06,VALID,916.048,VALID,0.0,VALID,99.155,VALID,-0.018,VALID,20.431,VALID,38.0,VALID,0.0,